Terminal Aerodrome Forecast
Issued by NWS Twin Cities, MN

Home | Current Version | Previous Version | Graphics & Text | Print | Product List | Glossary On
Versions: 1 2 3 4 5 6 7 8 9 10 11 12 13 14 15 16 17 18 19 20 21 22 23 24
000
FTUS43 KMPX 292300
TAFMSP
TAF
KMSP 292336Z 3000/3106 29012KT P6SM SCT060
     FM300130 31004KT P6SM SKC
     FM301500 32010KT P6SM SCT050
     FM310100 29004KT P6SM SKC=

USA.gov is the U.S. government's official web portal to all federal, state and local government web resources and services.